Location: Skalnate Pleso
(49.1889°N, 20.2450°E)
Time: 01:11:32
(UTC+01:00)

Cosmos 2333 - Pass Details

Date: 19 November 2019
Orbit: 828 x 867 km, 70.9° (Epoch: 14 December)

Event Time Altitude Azimuth Distance (km) Brightness Sun altitude
Exits shadow 05:53:09 - 328° (NNW) 3,024 6.6 -10.0°
Reaches altitude 10° 05:54:30 10° 326° (NNW) 2,517 6.2 -9.8°
Maximum altitude 06:00:14 64° 247° (WSW) 959 4.3 -8.9°
Drops below altitude 10° 06:05:55 10° 167° (SSE) 2,505 7.1 -8.0°
Sets 06:08:23 0° 164° (SSE) 3,436 7.9 -7.7°
